Location: Rancho Del Sol Observatory
(38.7214°N, 120.6350°W)
Time: 06:01:40
(UTC-07:00)

Cosmos 2221 Rocket - Visible Passes

Search period start: 20 October 2014 00:00
Search period end: 30 October 2014 00:00
Orbit: 621 x 651 km, 82.5° (Epoch: 19 October)

Date Brightness Start Highest point End Pass type
(mag) Time Alt. Az. Time Alt. Az. Time Alt. Az.
20 Oct 6.4 05:41:38 10° NNE 05:44:51 20° ENE 05:48:03 10° ESE visible
20 Oct 4.8 19:51:19 10° SSW 19:55:37 44° W 19:59:55 10° N visible
21 Oct 5.0 06:03:28 10° N 06:07:39 41° ENE 06:11:48 10° SSE visible
21 Oct 4.4 18:36:15 10° SSE 18:40:11 31° E 18:44:07 10° NNE visible
21 Oct 6.2 20:14:59 10° SW 20:18:24 21° WNW 20:21:49 10° NNW visible
22 Oct 3.5 06:25:52 10° N 06:30:18 88° W 06:34:42 10° S visible
22 Oct 3.6 18:58:12 10° S 19:02:40 68° E 19:07:06 10° NNE visible
23 Oct 6.5 05:11:38 10° NNE 05:14:26 16° ENE 05:17:14 10° ESE visible
23 Oct 4.1 06:48:43 10° NNW 06:52:49 38° W 06:56:53 10° SSW visible
23 Oct 4.4 19:20:53 10° SSW 19:25:16 54° W 19:29:39 10° N visible
24 Oct 5.3 05:33:15 10° NNE 05:37:16 34° ENE 05:41:17 10° SE visible
24 Oct 6.0 19:44:19 10° SW 19:48:01 25° WNW 19:51:43 10° NNW visible
25 Oct 3.7 05:55:32 10° N 05:59:57 76° E 06:04:21 10° SSE visible
25 Oct 6.8 20:09:08 10° W 20:10:54 12° WNW 20:12:41 10° NW visible
26 Oct 6.7 04:41:46 10° NE 04:44:01 14° ENE 04:46:15 10° ESE visible
26 Oct 3.8 06:18:16 10° NNW 06:22:30 47° W 06:26:43 10° SSW visible
26 Oct 4.1 18:50:28 10° SSW 18:54:55 66° W 18:59:21 10° N visible
27 Oct 5.6 05:03:03 10° NNE 05:06:53 28° ENE 05:10:41 10° SE visible
27 Oct 4.7 06:41:32 10° NW 06:44:54 22° W 06:48:16 10° SW visible
27 Oct 5.7 19:13:42 10° SW 19:17:37 30° WNW 19:21:32 10° NNW visible
28 Oct 4.0 05:25:13 10° N 05:29:36 62° E 05:33:57 10° SSE visible
28 Oct 6.6 19:38:00 10° WSW 19:40:28 15° WNW 19:42:56 10° NW visible
29 Oct 6.8 04:12:10 10° NE 04:13:34 11° ENE 04:14:58 10° E visible
29 Oct 3.5 05:47:50 10° NNW 05:52:10 58° W 05:56:30 10° S visible
